Lexington Weather

Lexington, Massachusetts, USA

73°F
8/7/2020 11:23am 
  • Lexington Conditions: Clear
  • Temperature: 72.7°F / 22.6°CWarmer 2.5°F than last hour.
  • Dew Point: 63.5°FIncreased 0.9°Fsince last hour.
  • Relative Humidity: 73%Decreased 4.0% since last hour.
  • Wind: Calm, 10-min avg: Calm, gust: None
  • Barometer: 30.14 in Steady
  • Visibility: 10 miles
  • Rain Today: 0.00 in
  •   

Regional Weather Roundup
for Boston / Norton, MA

        
000
ASUS41 KBOX 021805
RWRBOX

REGIONAL WEATHER ROUNDUP
NATIONAL WEATHER SERVICE BOSTON/NORTON MA
200 PM EDT SUN AUG 02 2020

NOTE:  "FAIR" INDICATES FEW OR NO CLOUDS BELOW 12,000 FEET WITH NO 
SIGNIFICANT WEATHER AND/OR OBSTRUCTIONS TO VISIBILITY.

MAZALL-021900-
EASTERN MASSACHUSETTS
  
CITY           SKY/WX    TMP DP  RH WIND       PRES   REMARKS
BOSTON         PTSUNNY   84  64  50 SE15      29.95F                  
6HR MIN TEMP:  74; 6HR MAX TEMP:  85;                                

BEVERLY        CLOUDY    81  65  58 SE16      29.96F                  
LAWRENCE       PTSUNNY   84  64  50 S3        29.97F                  
BEDFORD        CLOUDY    85  63  47 S17G24    29.94F                  
BLUE HILL      NOT AVBL                                               
NORWOOD        PTSUNNY   85  66  53 S9G17     29.95F                  
MARSHFIELD     PTSUNNY   86  66  51 VRB7G21   29.97F                  
PLYMOUTH       MOSUNNY   84  60  44 S13G24    30.00                   
TAUNTON        PTSUNNY   86  67  52 S10G17    29.98S                  
NEW BEDFORD    PTSUNNY   82  71  69 S17G23    29.99S                  
$$

MAZALL-021900-
CAPE COD AND THE ISLANDS
  
CITY           SKY/WX    TMP DP  RH WIND       PRES   REMARKS
FALMOUTH       SUNNY     82  68  61 S17       30.01S                  
HYANNIS        SUNNY     81  66  60 S14G22    30.00F                  
CHATHAM        MOSUNNY   80  67  64 S9G18     30.03F                  
PROVINCETOWN   MOSUNNY   82  66  58 S15       30.01S                  
NANTUCKET      SUNNY     77  68  73 S16       30.02F                  
MARTHAS VNYRD  SUNNY     80  70  71 S17       30.01F                  
$$
 
MAZALL-021900-
CENTRAL AND WESTERN MASSACHUSETTS
  
CITY           SKY/WX    TMP DP  RH WIND       PRES   REMARKS
WORCESTER      CLOUDY    84  63  49 SE22      29.98F                  
6HR MIN TEMP:  71; 6HR MAX TEMP:  84;                                

FITCHBURG      PTSUNNY   84  63  49 SE16G25   29.94F                  
ORANGE         CLOUDY    83  64  52 S15       29.94F                  
SPRINGFIELD    LGT RAIN  80  69  67 S14       29.91F                  
WESTFIELD      HVY RAIN  75  71  87 S8        29.92S FOG              
NORTH ADAMS    CLOUDY    79  69  71 SE8       29.91F                  
PITTSFIELD     CLOUDY    74  69  85 SE8G25    29.93S                  
$$
 
RIZALL-021900-
RHODE ISLAND
  
CITY           SKY/WX    TMP DP  RH WIND       PRES   REMARKS
PROVIDENCE     PTSUNNY   81  73  76 S17G25    29.98F                  
6HR MIN TEMP:  74; 6HR MAX TEMP:  85;                                

NEWPORT        CLOUDY    80  72  76 S15G23    30.00S                  
BLOCK ISLAND   PTSUNNY   80  73  79 S15G23    29.99F                  
SMITHFIELD     PTSUNNY   81  72  74 SE12G17   29.98F                  
WESTERLY       CLOUDY    79  71  76 SE9       29.98F                  
$$
 
CTZALL-021900-
CONNECTICUT
  
CITY           SKY/WX    TMP DP  RH WIND       PRES   REMARKS
BRADLEY INTL   RAIN      76  71  85 S15G28    29.91F FOG              
6HR MIN TEMP:  76; 6HR MAX TEMP:  85; 6HR PCP:  0.04;                

HARTFORD       RAIN      77  74  90 S10       29.92S FOG              
BRIDGEPORT     LGT RAIN  79  75  87 S12       29.91S                  
DANBURY        CLOUDY    78  75  90 S8        29.92F                  
GROTON         CLOUDY    76  72  87 SE13      29.95F                  
NEW HAVEN      CLOUDY    82  76  81 SE18G24   29.91F                  
CHESTER        NOT AVBL                                               
MERIDEN        CLOUDY    77  73  87 SE9       29.91F                  
WILLIMANTIC    CLOUDY    81  70  69 S13G20    29.95F                  
OXFORD         LGT RAIN  76  75  97 S8        29.95F FOG              
$$

MEZ002-015-021-024-NHZ003-005-008-011-012-014-VTZ005-008-021900-
NORTHERN NEW ENGLAND
  
CITY           SKY/WX    TMP DP  RH WIND       PRES   REMARKS
PORTLAND ME    PTSUNNY   81  67  62 S13       29.97F                  
6HR MIN TEMP:  74; 6HR MAX TEMP:  85;                                

BANGOR ME      MOSUNNY   84  65  52 S17G25    29.97F                  
CONCORD NH     CLOUDY    81  64  56 SE7       29.94F                  
MANCHESTER NH  CLOUDY    85  62  46 S15G24    29.92F                  
NASHUA NH      PTSUNNY   85  66  53 SE14G20   29.94F                  
PORTSMOUTH NH  CLOUDY    80  67  64 SE15      29.95F                  
JAFFREY NH     CLOUDY    81  64  56 SE10G20   29.96F                  
KEENE NH       CLOUDY    82  66  58 S13G23    29.93F                  
BURLINGTON VT  CLOUDY    83  61  47 S14G26    29.83F                  
MT. WASHINGTON NOT AVBL                                               
$$

NYZ052-076-021900-
EASTERN NEW YORK
  
CITY           SKY/WX    TMP DP  RH WIND       PRES   REMARKS
ALBANY         CLOUDY    74  70  87 S12       29.88R                  
6HR MIN TEMP:  71; 6HR MAX TEMP:  78; 6HR PCP:  0.01;                

NEW YORK CITY  PTSUNNY   88  74  63 S16G23    29.87F HX  96           
6HR MIN TEMP:  77; 6HR MAX TEMP:  89;                                

$$
 
ANZALL-021900-
MARINE OBSERVATIONS
  
STATION/POSITION TIME  TEMP    WIND        PRES    VSBY  WAVE
                       AIR SEA DIR/SP/G                  HT/PER
                 (UTC) (F)     (DEG/KT/KT) (MB)    (MI)  (FT/S)
BOSTON BUOY      1750   73 70  130/ 12/ 14 1013.6S         2/ 3
BUZZARDS BAY     1700          160/ 14/ 16 1016.9F
NANTUCKET SOUND  1750      76  170/ 17/ 21 1015.5          2/ 3
MASS BAY-STELLWA 1704   74     180/ 16/ 17 1012.7F  1 7/8  2/ 3
ISLE OF SHOALS   1700   74     150/ 17/ 18 1014.6F
S OF BLOCK IS    1726      72                N/A           3/ 9
$$

......................KEY.........................
  SKY/WX - SKY CONDITION/PRESENT WEATHER
  TMP    - TEMPERATURE IN FAHRENHEIT
  DWPT   - DEWPOINT IN FAHRENHEIT
  RH     - RELATIVE HUMIDITY IN PERCENT
  WIND   - DIRECTION AND SPEED IN MPH
  PRES   - MEAN SEA LEVEL PRESSURE IN INCHES OF HG
  WCI    - WIND CHILL INDEX
  VSB    - VISIBILITY IN MILES
  HX     - HEAT INDEX
  TC     - TEMPERATURE IN CELSIUS
  VRB    - VARIABLE WIND DIRECTION
  N/A    - NOT AVAILABLE
  
      

Other recent Regional Weather Roundups

Fri Aug 7, 11:04am

Fri Aug 7, 10:04am

Fri Aug 7, 9:04am

Fri Aug 7, 8:04am

Fri Aug 7, 7:04am

Fri Aug 7, 6:04am

Fri Aug 7, 5:04am

Fri Aug 7, 4:04am

Fri Aug 7, 3:04am

Fri Aug 7, 2:04am

Fri Aug 7, 1:05am

Fri Aug 7, 12:04am

Thu Aug 6, 11:04pm

Thu Aug 6, 10:04pm

Thu Aug 6, 9:04pm

Thu Aug 6, 8:04pm

Thu Aug 6, 7:04pm

Thu Aug 6, 6:04pm

Thu Aug 6, 5:04pm

Thu Aug 6, 4:05pm

Thu Aug 6, 3:04pm

Thu Aug 6, 2:05pm

Thu Aug 6, 1:04pm

Thu Aug 6, 12:04pm

Thu Aug 6, 11:04am

Thu Aug 6, 10:04am

Thu Aug 6, 9:04am

Thu Aug 6, 8:04am

Thu Aug 6, 7:04am

Thu Aug 6, 6:04am

Thu Aug 6, 5:04am

Thu Aug 6, 4:04am

Thu Aug 6, 3:04am

Thu Aug 6, 2:05am

Thu Aug 6, 1:04am

Thu Aug 6, 12:04am

Wed Aug 5, 11:04pm

Wed Aug 5, 10:04pm

Wed Aug 5, 9:04pm

Wed Aug 5, 8:05pm

Wed Aug 5, 7:04pm

Wed Aug 5, 6:04pm

Wed Aug 5, 5:04pm

Wed Aug 5, 4:05pm

Wed Aug 5, 3:04pm

Wed Aug 5, 2:04pm

Wed Aug 5, 1:04pm

Wed Aug 5, 12:04pm

Wed Aug 5, 11:04am

Wed Aug 5, 10:04am

Wed Aug 5, 9:04am

Wed Aug 5, 8:04am

Wed Aug 5, 7:04am

Wed Aug 5, 6:04am

Wed Aug 5, 5:04am

Wed Aug 5, 4:04am

Wed Aug 5, 3:04am

Wed Aug 5, 2:05am

Wed Aug 5, 1:04am

Wed Aug 5, 12:05am

Tue Aug 4, 11:05pm

Tue Aug 4, 10:05pm

Tue Aug 4, 9:04pm

Tue Aug 4, 8:04pm

Tue Aug 4, 7:05pm

Tue Aug 4, 6:05pm

Tue Aug 4, 5:05pm

Tue Aug 4, 4:05pm

Tue Aug 4, 3:04pm

Tue Aug 4, 2:05pm

Tue Aug 4, 1:04pm

Tue Aug 4, 12:05pm

Tue Aug 4, 11:04am

Tue Aug 4, 10:04am

Tue Aug 4, 9:04am

Tue Aug 4, 8:04am

Tue Aug 4, 7:04am

Tue Aug 4, 6:04am

Tue Aug 4, 5:04am

Tue Aug 4, 4:04am

Tue Aug 4, 3:04am

Tue Aug 4, 2:04am

Tue Aug 4, 1:04am

Tue Aug 4, 12:04am

Mon Aug 3, 11:04pm

Mon Aug 3, 10:04pm

Mon Aug 3, 9:04pm

Mon Aug 3, 8:05pm

Mon Aug 3, 7:04pm

Mon Aug 3, 6:04pm

Mon Aug 3, 5:04pm

Mon Aug 3, 4:05pm

Mon Aug 3, 3:04pm

Mon Aug 3, 2:04pm

Mon Aug 3, 1:04pm

Mon Aug 3, 12:05pm

Mon Aug 3, 11:04am

Mon Aug 3, 10:04am

Mon Aug 3, 9:05am

Mon Aug 3, 8:04am

Mon Aug 3, 7:04am

Mon Aug 3, 6:04am

Mon Aug 3, 5:04am

Mon Aug 3, 4:04am

Mon Aug 3, 3:04am

Mon Aug 3, 2:04am

Mon Aug 3, 1:04am

Mon Aug 3, 12:05am

Sun Aug 2, 11:04pm

Sun Aug 2, 10:04pm

Sun Aug 2, 9:04pm

Sun Aug 2, 8:04pm

Sun Aug 2, 7:04pm

Sun Aug 2, 6:04pm

Sun Aug 2, 5:04pm

Sun Aug 2, 4:05pm

Sun Aug 2, 3:04pm

Sun Aug 2, 1:04pm

Sun Aug 2, 12:04pm

Sun Aug 2, 11:04am

Sun Aug 2, 10:04am

Sun Aug 2, 9:05am

Sun Aug 2, 8:05am

Sun Aug 2, 7:04am

Sun Aug 2, 6:04am

Sun Aug 2, 5:04am

Sun Aug 2, 4:05am

Sun Aug 2, 3:04am

Sun Aug 2, 2:04am

Sun Aug 2, 1:04am

Sun Aug 2, 12:05am

Sat Aug 1, 11:04pm

Sat Aug 1, 10:04pm

Sat Aug 1, 9:04pm

Sat Aug 1, 8:05pm

Sat Aug 1, 7:04pm

Sat Aug 1, 6:04pm

Sat Aug 1, 5:05pm

Sat Aug 1, 4:05pm

Sat Aug 1, 3:04pm

Sat Aug 1, 2:04pm

Sat Aug 1, 1:04pm

Sat Aug 1, 12:04pm

Sat Aug 1, 11:05am

Sat Aug 1, 10:05am

Sat Aug 1, 9:04am

Sat Aug 1, 8:04am

Sat Aug 1, 7:04am

Sat Aug 1, 6:04am

Sat Aug 1, 5:04am

Sat Aug 1, 4:05am

Sat Aug 1, 3:04am

Sat Aug 1, 2:04am

Sat Aug 1, 1:04am

Sat Aug 1, 12:05am

Fri Jul 31, 11:05pm

Fri Jul 31, 10:04pm

Fri Jul 31, 9:04pm

Fri Jul 31, 8:05pm

Fri Jul 31, 7:05pm

Fri Jul 31, 6:04pm

Fri Jul 31, 5:04pm

Fri Jul 31, 4:05pm

Fri Jul 31, 3:04pm

Fri Jul 31, 2:05pm

Fri Jul 31, 1:04pm

Fri Jul 31, 12:04pm

Meta data:

ID: 1b1f7ef1-9fa5-4eb2-b36d-8cbbba1e244f
Link: https://api.weather.gov/products/1b1f7ef1-9fa5-4eb2-b36d-8cbbba1e244f